TimeCST,TemperatureF,Dew PointF,Humidity,Sea Level PressureIn,VisibilityMPH,Wind Direction,Wind SpeedMPH,Gust SpeedMPH,PrecipitationIn,Events,Conditions,WindDirDegrees,DateUTC
12:53 AM,35.1,32.0,89,29.84,5.0,Calm,Calm,-,N/A,,Clear,0,2013-01-28 06:53:00
1:53 AM,34.0,32.0,92,29.83,4.0,Calm,Calm,-,N/A,,Clear,0,2013-01-28 07:53:00
2:53 AM,34.0,30.9,89,29.81,4.0,North,3.5,-,N/A,,Scattered Clouds,350,2013-01-28 08:53:00
3:00 AM,33.8,30.2,87,29.81,3.0,Calm,Calm,-,N/A,,Mostly Cloudy,0,2013-01-28 09:00:00
3:22 AM,33.8,30.2,87,29.80,2.5,Calm,Calm,-,N/A,,Scattered Clouds,0,2013-01-28 09:22:00
3:27 AM,33.8,30.2,87,29.80,1.0,Calm,Calm,-,N/A,,Mist,0,2013-01-28 09:27:00
3:34 AM,33.8,30.2,87,29.80,0.5,Calm,Calm,-,N/A,Fog,Fog,0,2013-01-28 09:34:00
3:40 AM,33.8,30.2,87,29.80,1.0,Calm,Calm,-,N/A,,Clear,0,2013-01-28 09:40:00
3:47 AM,32.0,30.2,93,29.80,0.8,NNW,3.5,-,N/A,,Mist,340,2013-01-28 09:47:00
3:53 AM,32.0,30.0,92,29.80,0.5,North,4.6,-,N/A,Fog,Fog,350,2013-01-28 09:53:00
4:14 AM,32.0,30.2,93,29.80,0.2,NW,3.5,-,N/A,Fog,Fog,320,2013-01-28 10:14:00
4:46 AM,32.0,30.2,93,29.79,0.2,NNW,3.5,-,N/A,Fog,Fog,330,2013-01-28 10:46:00
4:53 AM,32.0,30.9,96,29.80,0.2,Calm,Calm,-,N/A,Fog,Fog,0,2013-01-28 10:53:00
5:02 AM,33.8,32.0,93,29.80,0.8,Calm,Calm,-,N/A,,Mist,0,2013-01-28 11:02:00
5:09 AM,33.8,32.0,93,29.79,2.0,Calm,Calm,-,N/A,,Overcast,0,2013-01-28 11:09:00
5:53 AM,35.1,33.1,92,29.80,1.5,Calm,Calm,-,N/A,,Overcast,0,2013-01-28 11:53:00
6:11 AM,35.6,33.8,93,29.78,1.0,Calm,Calm,-,N/A,,Overcast,0,2013-01-28 12:11:00
6:33 AM,37.4,35.6,93,29.78,0.8,Calm,Calm,-,N/A,,Overcast,0,2013-01-28 12:33:00
6:53 AM,37.0,35.1,93,29.80,0.5,Calm,Calm,-,N/A,Fog,Fog,0,2013-01-28 12:53:00
7:53 AM,37.9,36.0,93,29.81,0.2,Calm,Calm,-,N/A,Fog,Fog,0,2013-01-28 13:53:00
8:53 AM,41.0,39.9,96,29.81,0.0,South,3.5,-,N/A,Fog,Fog,180,2013-01-28 14:53:00
9:53 AM,45.0,43.0,93,29.79,0.8,South,8.1,-,N/A,,Mist,180,2013-01-28 15:53:00
9:58 AM,44.6,42.8,93,29.78,4.0,SSW,6.9,-,N/A,,Mostly Cloudy,200,2013-01-28 15:58:00
10:11 AM,46.4,44.6,93,29.78,5.0,SSW,9.2,-,N/A,,Scattered Clouds,200,2013-01-28 16:11:00
10:53 AM,53.1,42.1,66,29.79,10.0,SSW,16.1,-,N/A,,Clear,200,2013-01-28 16:53:00
11:53 AM,62.1,43.0,50,29.75,10.0,South,12.7,-,N/A,,Clear,180,2013-01-28 17:53:00
12:53 PM,68.0,41.0,37,29.69,10.0,South,18.4,25.3,N/A,,Clear,190,2013-01-28 18:53:00
1:53 PM,72.0,42.1,34,29.65,10.0,South,19.6,28.8,0.01,,Clear,170,2013-01-28 19:53:00
2:53 PM,72.0,39.0,30,29.64,10.0,South,21.9,34.5,N/A,,Clear,190,2013-01-28 20:53:00
3:53 PM,73.9,39.9,29,29.61,10.0,South,18.4,28.8,N/A,,Clear,180,2013-01-28 21:53:00
4:53 PM,72.0,52.0,49,29.59,10.0,South,17.3,29.9,N/A,,Clear,180,2013-01-28 22:53:00
5:53 PM,69.1,53.1,57,29.59,10.0,South,13.8,23.0,N/A,,Partly Cloudy,180,2013-01-28 23:53:00
6:53 PM,66.9,55.0,66,29.59,10.0,South,15.0,23.0,N/A,,Clear,180,2013-01-29 00:53:00
7:53 PM,66.9,55.9,68,29.59,10.0,South,18.4,29.9,N/A,,Clear,180,2013-01-29 01:53:00
8:53 PM,66.0,55.0,68,29.58,10.0,South,20.7,31.1,N/A,,Clear,190,2013-01-29 02:53:00
9:53 PM,64.9,57.0,75,29.58,10.0,South,21.9,31.1,N/A,,Partly Cloudy,190,2013-01-29 03:53:00
10:53 PM,64.9,57.9,78,29.56,10.0,South,20.7,34.5,N/A,,Clear,190,2013-01-29 04:53:00
11:53 PM,64.0,57.0,78,29.56,10.0,SSW,19.6,28.8,N/A,,Clear,200,2013-01-29 05:53:00